Regional Weather Roundup
Issued by NWS

Home | Current Version | Previous Version | Text Only | Print | Product List | Glossary On
Versions: 1 2 3 4 5 6 7 8 9 10 11 12 13 14 15 16 17 18 19 20 21 22 23 24 25 26 27 28 29 30 31 32 33 34 35 36 37 38 39 40 41 42 43 44 45 46 47 48 49 50
000
ASUS43 KLSX 260507
RWRMO

WEATHER SUMMARY FOR MISSOURI
NATIONAL WEATHER SERVICE SPRINGFIELD MO
1200 AM CDT TUE MAY 26 2015

NOTE: "FAIR" INDICATES FEW OR NO CLOUDS BELOW 12,000 FEET WITH NO
       SIGNIFICANT WEATHER AND/OR OBSTRUCTIONS TO VISIBILITY.
       CURRENT SKY AND/OR WEATHER CONDITIONS ARE NOT AVAILABLE FOR
       CHILLICOTHE AND FARMINGTON.

MOZ001>031-035>038-043-044-053-054-260600-
...NORTHERN AND WESTERN MISSOURI...

CITY           SKY/WX    TMP DP  RH WIND       PRES   REMARKS
KANSAS CTY INT RAIN      64  63  94 VRB3        N/A
KANSAS C DTWN  TSTM      67  57  70 SE10      29.83R
LEE`S SUMMIT   CLOUDY    72  66  81 S13       29.82S
ST JOSEPH      LGT RAIN  61  60  97 NW6       29.82F FOG
CHILLICOTHE      N/A     67  58  72 N7        29.85F
KIRKSVILLE     CLEAR     69  65  86 S8        29.87S

$$
MOZ066>068-077>081-088>096-101>105-260600-
...SOUTHWEST MISSOURI...

CITY           SKY/WX    TMP DP  RH WIND       PRES   REMARKS
SPRINGFIELD    CLOUDY    67  63  87 SE20G30   29.82F
JOPLIN         CLOUDY    65  61  87 E6        29.77S

$$
MOZ032>034-039>042-045>050-055>058-069>072-260600-
...CENTRAL MISSOURI...

CITY           SKY/WX    TMP DP  RH WIND       PRES   REMARKS
COLUMBIA       CLOUDY    72  66  81 SE13      29.88F
JEFFERSON CITY CLOUDY    73  66  78 SE9       29.87F
ROLLA          CLOUDY    70  66  87 SE12      29.89F
SEDALIA        CLOUDY    72  65  78 SE6       29.84F
WHITEMAN AFB   LGT RAIN  71  66  84 S6        29.81F
WARRENSBURG    CLOUDY    72  61  68 SE12      29.83F
OSAGE BEACH    CLOUDY    72  64  78 SE9       29.86F

$$
MOZ051-052-059>065-260600-
...EAST CENTRAL MISSOURI...

CITY           SKY/WX    TMP DP  RH WIND       PRES   REMARKS
ST LOUIS INTL  CLOUDY    75  66  73 SE14G22   29.95F
SPIRIT OF STL  CLOUDY    73  67  81 SE6       29.92F
ST CHARLES     CLOUDY    73  67  81 SE9       29.93S

$$
MOZ072>076-082>087-097>100-106>115-260600-
...SOUTH CENTRAL AND SOUTHEAST MISSOURI...

CITY           SKY/WX    TMP DP  RH WIND       PRES   REMARKS
CAPE GIRARDEAU MOCLDY    70  68  93 SE13      29.99R
FARMINGTON     CLOUDY    72  66  83 S13       30.00F
POPLAR BLUFF   CLOUDY    72  69  90 SE7       29.95F
WEST PLAINS    LGT RAIN  64  61  90 S8        29.94S

$$



USA.gov is the U.S. government's official web portal to all federal, state and local government web resources and services.